Location: Beek
(51.4190°N, 5.7240°E)
Time: 18:34:15
(UTC+00:00)

Daily predictions for brighter satellites

Satellite Brightness Start Highest point End
(mag) Time Altitude Azimuth Time Altitude Azimuth Time Altitude Azimuth
ATLAS CENTAUR R/B 4.3 19:44:27 10° WNW 19:50:48 73° NNE 20:08:12 10° ESE
BREEZE-M DEB (TANK) 3.3 19:49:31 10° W 19:52:03 30° SSW 19:57:07 10° SE
Cosmos 2322 Rocket 2.5 19:46:58 10° NNW 19:52:36 71° WSW 19:58:10 10° SSE
Cosmos 2322 4.4 19:48:01 10° NNW 19:53:30 44° NE 19:58:59 10° ESE
SPOT 5 4.1 19:53:34 10° ESE 19:57:04 23° ENE 20:00:41 10° N
Cosmos 2195 Rocket 4.5 19:51:08 10° S 19:57:11 71° E 20:03:18 10° NNE
USA 234 3.9 19:51:13 10° ENE 19:57:38 60° N 20:04:04 10° W
ARIANE 5 R/B 3.9 19:55:01 10° ESE 19:58:45 27° ENE 20:02:29 10° N
Cosmos 1452 Rocket 4.5 19:54:06 10° NNW 19:58:56 35° NE 20:03:44 10° ESE
OBJECT-B 3.3 19:58:41 10° SSW 20:01:16 22° W 20:03:52 10° NW
Cosmos 923 Rocket 4.1 19:55:56 10° SSW 20:01:17 85° ESE 20:06:40 10° NNE
BREEZE-M DEB (TANK) 4.4 20:01:33 10° W 20:04:35 34° SSW 20:12:16 10° SE
Cosmos 2219 Rocket 2.8 19:59:15 10° NNW 20:04:39 45° NE 20:10:00 10° ESE
Resurs 1-3 4.4 20:04:01 10° S 20:08:17 51° W 20:12:36 10° NNW
Cosmos 2056 Rocket 3.6 20:04:04 10° NNW 20:09:27 85° WSW 20:14:41 10° SSE
ATLAS 5 CENTAUR R/B 2.7 20:05:40 10° NW 20:10:48 55° NE 20:16:56 10° ESE
Spot 2 Rocket 3.9 20:14:13 10° SE 20:19:10 52° ENE 20:24:06 10° N
SPOT 1/Viking Rocket 3.6 20:15:12 10° SSE 20:20:24 78° ENE 20:25:39 10° NNW
USA 245 3.4 20:17:05 10° SSE 20:21:10 57° ENE 20:24:29 10° N
Cosmos 1408 Rocket 4.2 20:17:39 10° SSE 20:21:38 37° E 20:25:37 10° NNE
Cosmos 1092 Rocket 4.3 20:16:32 10° SSW 20:22:50 77° WNW 20:29:13 10° N
NOSS 2-1 (E) 2.8 20:19:48 10° SSW 20:23:01 62° SE 20:26:29 10° NE
SL-16 R/B 4.4 20:20:45 10° N 20:24:10 16° NNE 20:27:36 10° ENE
CZ-2C R/B 4.0 20:20:51 10° NNE 20:25:10 45° E 20:29:25 10° S
SL-16 R/B 3.7 20:20:51 10° NW 20:25:52 33° WSW 20:30:52 10° SSW
Cosmos 2026 Rocket 4.1 20:20:09 10° S 20:26:28 86° W 20:32:43 10° N
GP-B 3.1 20:23:36 10° N 20:28:04 80° E 20:32:31 10° S
IGS 5A 4.2 20:24:54 10° S 20:28:56 51° W 20:33:00 10° NNW
Cosmos 1151 Rocket 3.5 20:26:17 10° NNW 20:30:38 63° W 20:34:58 10° S
NOSS 3-1 (C) 4.2 20:25:44 10° NW 20:33:02 77° SW 20:40:55 13° SSE
CARTOSAT-1 3.7 20:29:08 12° SSE 20:33:05 63° ENE 20:37:23 10° N
Cosmos 1680 Rocket 3.8 20:28:30 10° SSW 20:33:45 72° WNW 20:39:01 10° NNE
Cosmos 2112 Rocket 4.2 20:30:17 10° SSW 20:35:34 79° WNW 20:40:52 10° NNE
Lacrosse 5 3.3 20:33:37 13° SSE 20:35:43 16° ESE 20:38:42 10° E
Cosmos 2333 4.2 20:31:13 10° NNW 20:36:52 87° WSW 20:41:51 13° SSE
Okean 3 Rocket 3.7 20:33:36 10° S 20:38:07 85° W 20:42:42 10° N
ERS-2 2.9 20:36:38 10° N 20:40:13 55° WNW 20:43:46 10° SSW
Meteor 1-10 Rocket 4.2 20:36:02 10° N 20:41:37 80° ENE 20:46:47 12° SSE
MetOp-B 4.5 20:37:23 10° S 20:42:42 66° WSW 20:48:04 10° NNW
CZ-4C R/B 4.1 20:39:43 10° NW 20:45:29 34° NNE 20:52:18 10° E
COSMOS 2487 3.0 20:45:40 17° SSE 20:47:50 34° ESE 20:50:56 10° NE
Cosmos 1515 Rocket 3.5 20:43:30 10° N 20:47:58 87° ENE 20:51:45 14° S
GEOS 3 Rocket 3.9 20:43:47 10° NE 20:49:00 75° NW 20:54:08 10° SW
COSMOS 2428 2.8 20:43:44 10° NNW 20:49:27 73° ENE 20:53:52 17° SE
USA 229 DEB 3.9 20:44:02 10° NW 20:51:18 87° SW 20:57:36 17° SE
USA 229 3.9 20:44:08 10° NW 20:51:24 88° SW 20:57:42 17° SE
COSMOS 2455 2.9 20:48:11 10° SSW 20:54:00 55° ESE 20:59:52 10° NE
Cosmos 292 Rocket 4.4 20:51:09 10° NNW 20:55:48 53° WSW 20:59:58 13° S
Terra 2.1 20:54:30 18° SE 20:57:52 56° ENE 21:02:33 10° N
Cosmos 2360 Rocket 3.3 20:54:02 10° NW 20:59:12 38° WSW 21:04:23 10° S
Cosmos 2084 Rocket 3.6 20:55:23 10° NW 20:59:32 69° NE 21:02:26 20° ESE
Cosmos 1048 Rocket 4.4 20:59:48 15° S 21:03:42 41° ESE 21:08:30 10° NE
Cosmos 972 Rocket 4.1 21:01:59 12° S 21:06:35 51° ESE 21:11:20 10° NNE
NOSS 2-1 (C) 4.0 21:04:05 10° WSW 21:07:15 47° NW 21:10:43 10° NE
USA 102 4.3 21:08:33 27° E 21:10:34 48° NE 21:17:30 10° NNW
Resurs 01 Rocket 3.7 21:07:30 10° SW 21:11:05 24° W 21:14:41 10° NW
NOSS 3-1 (A) 4.2 21:04:32 10° NW 21:11:51 74° SW 21:18:16 19° SSE
Cosmos 1707 Rocket 4.5 21:10:35 10° N 21:14:36 34° ENE 21:16:40 22° ESE
NOSS 2-1 (D) 4.3 21:11:59 10° WSW 21:15:06 41° NW 21:18:32 10° NE
Cosmos 1812 4.5 21:11:52 10° NNW 21:15:14 29° W 21:18:35 10° SSW
Cosmos 2266 Rocket 4.0 21:09:42 12° S 21:15:29 75° E 21:21:48 10° NNE
H-2A R/B 4.5 21:12:00 10° NNE 21:15:44 30° E 21:17:03 25° SE
Cosmos 1980 4.2 21:10:17 10° NNW 21:15:50 52° NE 21:19:35 20° ESE
Cosmos 1862 4.3 21:17:28 10° SSW 21:21:18 45° WNW 21:25:08 10° N
ERS-1 Rocket 3.2 21:20:13 18° S 21:23:54 68° WSW 21:28:56 10° NNW
SL-27 R/B 4.5 21:21:06 10° WSW 21:24:20 30° WNW 21:27:34 10° N
Cosmos 2228 Rocket 3.0 21:19:55 10° N 21:24:22 85° E 21:26:53 26° SSE
Cosmos 2285 Rocket 4.1 21:22:30 10° NNW 21:28:47 72° WSW 21:33:03 22° S
Cosmos 2297 Rocket 3.3 21:31:27 23° SE 21:32:46 25° ESE 21:37:17 10° NE
Cosmos 2315 Rocket 4.0 21:26:53 10° N 21:33:17 90° ESE 21:37:37 22° S
Cosmos 1805 Rocket 3.6 21:31:35 27° S 21:33:52 64° E 21:38:15 10° NNE
BREEZE-M DEB (TANK) 2.6 21:28:28 10° W 21:33:53 42° SSW 21:34:36 35° S
NOSS 0 Rocket 3.9 21:27:50 10° NNW 21:34:08 90° E 21:37:53 26° SSE
Cosmos 2333 Rocket 3.1 21:29:27 10° NW 21:34:43 41° WSW 21:38:33 17° S
SPOT 5 3.3 21:31:58 19° S 21:34:52 51° W 21:39:19 10° NNW
ARIANE 5 R/B 3.6 21:31:52 16° SSW 21:35:03 42° W 21:39:17 10° NNW
Cosmos 2237 Rocket 2.4 21:31:38 10° NNW 21:37:19 66° ENE 21:40:34 26° SE
USA 234 3.8 21:33:50 10° E 21:40:14 59° N 21:46:39 10° WNW
Cosmos 1452 Rocket 4.3 21:36:12 10° NW 21:41:10 44° WSW 21:44:29 20° SSW
Meteor 1-20 Rocket 4.3 21:40:21 25° S 21:43:40 63° E 21:49:22 10° NNE
Cosmos 1500 Rocket 4.0 21:40:12 15° SSW 21:43:47 62° WNW 21:48:13 10° N
NOSS 2-2 (E) 4.3 21:39:58 10° NW 21:45:07 88° SW 21:49:13 26° SE
Cosmos 2227 Rocket 3.4 21:44:49 23° ESE 21:45:48 24° ESE 21:50:12 10° NE
ALOS 2 4.3 21:45:45 17° E 21:47:41 23° ENE 21:51:09 10° N
Cosmos 2219 Rocket 3.1 21:43:24 10° NW 21:48:32 38° WSW 21:51:54 20° SSW
USA 40 PKM 4.2 21:45:47 10° WNW 21:49:33 69° SW 21:50:40 41° SE
USA 102 3.5 21:50:35 58° WSW 21:50:49 59° WSW 21:58:40 10° NNW
Sich 1 2.9 21:53:28 34° S 21:55:19 81° E 21:59:39 10° NNE
ATLAS 5 CENTAUR R/B 3.0 21:50:17 10° NW 21:55:31 43° SW 21:58:39 25° S
Cosmos 1515 3.6 21:52:32 10° NNW 21:56:20 82° W 21:57:27 44° S
Cosmos 1331 Rocket 4.2 21:51:58 10° NNW 21:57:09 64° WSW 21:59:36 31° S
Cosmos 1110 Rocket 4.4 21:53:20 10° NNW 21:58:34 58° WSW 22:01:08 29° S
Nadezhda 1 Rocket 4.5 21:57:18 10° N 22:03:32 50° ENE 22:06:40 28° SE
SL-16 R/B 2.9 22:04:16 10° NNW 22:09:46 47° NE 22:12:56 24° ESE
NOSS 2-2 (C) 4.3 22:06:02 10° NW 22:11:07 75° SW 22:14:24 32° SSE
Cosmos 1633 Rocket 3.1 22:10:51 44° SSE 22:11:56 59° E 22:16:13 10° NNE
Cosmos 1470 Rocket 4.2 22:14:08 36° ESE 22:14:46 38° E 22:18:48 10° NNE
Cosmos 494 Rocket 4.1 22:11:18 17° SW 22:15:18 71° WNW 22:20:29 10° NNE
Cosmos 1666 3.6 22:15:50 34° E 22:15:57 34° E 22:19:28 10° NNE
Lacrosse 5 1.8 22:12:52 10° SW 22:17:53 63° SE 22:22:54 10° ENE
Cosmos 1666 Rocket 3.5 22:21:09 43° S 22:22:36 89° ESE 22:27:07 10° N
Cosmos 1602 4.0 22:22:55 39° SW 22:24:08 61° WNW 22:27:57 10° N
SL-08 ROCKET BODY 4.4 22:21:32 33° S 22:24:30 78° E 22:30:42 10° NNE
Cosmos 1340 Rocket 3.7 22:28:39 33° E 22:28:41 33° E 22:32:17 10° NNE
COSMOS 2428 4.4 22:28:49 10° NW 22:33:10 23° WSW 22:35:52 16° SW
CZ-4C R/B 3.1 22:28:19 10° NW 22:35:10 69° NE 22:41:11 20° ESE
Terra 3.7 22:33:23 15° SW 22:35:58 22° W 22:39:42 10° NW
COBE Rocket 4.0 22:36:50 42° SSW 22:38:16 64° W 22:43:03 10° NNW
Meteor 2-4 Rocket 3.8 22:32:30 10° NNW 22:38:27 86° W 22:40:46 39° S
CZ-3B R/B 2.8 22:31:46 10° WNW 22:39:19 39° SW 22:39:48 38° SSW
COSMOS 2455 4.1 22:34:28 10° WSW 22:40:09 42° NW 22:45:53 10° NNE
Timation 2 Rocket 4.3 22:39:27 37° SSE 22:41:02 45° ESE 22:46:54 10° NE
Cosmos 1992 Rocket 4.0 22:36:13 10° NNW 22:41:29 75° ENE 22:43:15 42° SE
Cosmos 2242 Rocket 4.0 22:39:16 10° N 22:43:37 53° ENE 22:44:34 44° ESE
Cosmos 1862 Rocket 3.8 22:40:04 10° NNW 22:44:20 58° W 22:45:19 45° SW
USA 267 3.7 22:41:07 10° ENE 22:47:07 37° SE 22:48:09 35° SSE
Cosmos 2219 3.2 22:48:17 39° S 22:50:28 72° ESE 22:56:13 10° NNE
Meteor 1-5 Rocket 4.3 22:49:37 41° S 22:51:46 76° E 22:57:44 10° NNE
Spot 4 4.0 22:52:09 44° SSW 22:53:28 62° WSW 22:58:18 10° NNW
ATLAS 2AS CENTAUR R/B 4.4 22:52:13 10° NW 22:59:07 35° NNE 23:05:37 10° ENE
Cosmos 1500 4.1 22:59:15 36° WSW 23:00:10 42° WNW 23:03:52 10° N
Cosmos 1703 Rocket 3.5 22:56:12 10° N 23:00:35 77° ENE 23:01:20 60° SSE
Cosmos 2082 4.1 23:01:12 40° SE 23:02:21 45° ESE 23:07:48 10° NE
Cosmos 1378 3.0 23:00:11 10° N 23:03:55 83° E 23:03:58 83° ESE
Cosmos 909 Rocket 4.3 23:02:47 35° SSW 23:05:50 67° ESE 23:13:48 10° NE
Meteor 1-11 Rocket 4.0 23:05:19 41° SE 23:06:46 52° E 23:12:08 10° NNE
Okean 1-7 2.8 23:04:42 10° N 23:09:00 89° WSW 23:09:33 67° S
Cosmos 2181 Rocket 4.3 23:03:59 10° N 23:10:12 58° ENE 23:12:46 35° SE
Cosmos 1269 Rocket 4.3 23:10:35 31° SW 23:13:05 64° WNW 23:18:23 10° NNE
Cosmos 2297 Rocket 2.4 23:13:12 27° SW 23:16:20 68° WNW 23:22:02 10° NNE
Meteor 2-17 Rocket 4.4 23:15:38 41° SSW 23:17:57 85° W 23:24:04 10° N
Cosmos 2237 Rocket 3.5 23:16:21 10° NW 23:20:56 26° WSW 23:22:23 23° SW
USA 234 3.2 23:18:04 19° ESE 23:23:06 87° SSW 23:29:42 10° WNW
ALOS 2 2.9 23:23:09 47° SW 23:23:44 51° W 23:28:03 10° NNW
Cosmos 614 Rocket 4.3 23:23:41 44° SE 23:24:33 49° ESE 23:29:36 10° NNE
Meteor 1-13 Rocket 4.2 23:21:24 10° NNW 23:27:08 73° W 23:28:50 46° S
Cosmos 1461 3.2 23:27:18 54° ESE 23:27:18 54° ESE 23:31:34 10° NE
Cosmos 1709 Rocket 4.0 23:26:19 41° S 23:28:44 86° E 23:35:11 10° N
Cosmos 2227 Rocket 2.4 23:26:37 32° SW 23:29:20 71° WNW 23:35:01 10° NNE
SL-24 R/B - RUBIN 2 4.0 23:25:43 10° NW 23:30:56 69° NE 23:32:45 37° ESE
Cosmos 2263 Rocket 3.1 23:33:28 30° SE 23:34:27 32° ESE 23:39:26 10° NE
Cosmos 2344 4.4 23:34:40 27° SE 23:36:34 30° ESE 23:43:01 10° NE
Cosmos 1745 Rocket 4.5 23:35:14 30° SW 23:38:14 54° WNW 23:44:28 10° N
Cosmos 1603 4.1 23:32:57 10° NNW 23:38:32 57° NE 23:41:31 27° ESE
Cosmos 1536 2.6 23:40:44 79° SSW 23:40:58 88° W 23:45:04 10° N
PSLV R/B 4.1 23:37:09 10° NNE 23:41:49 52° E 23:42:34 47° SE
Cosmos 1842 4.1 23:40:01 10° N 23:43:40 38° ENE 23:44:13 36° E
Okean 3 3.5 23:41:10 10° NNW 23:45:25 65° W 23:45:46 62° SW
Cosmos 1241 Rocket 4.5 23:44:35 35° SSW 23:47:33 85° SE 23:54:04 10° NE
Cosmos 1869 Rocket 3.5 23:47:06 65° SSW 23:47:45 87° WNW 23:52:14 10° N
ASTEX 1 4.2 23:46:47 32° ESE 23:48:26 44° ENE 23:53:07 10° N
Cosmos 44 3.5 23:45:44 10° NW 23:50:52 53° WSW 23:51:26 50° SSW
Thor Agena Rocket 3.5 23:46:21 10° NNE 23:51:24 69° ESE 23:52:34 51° SSE
Cosmos 1666 4.4 23:50:39 22° W 23:51:35 24° WNW 23:54:45 10° NNW
SL-16 R/B 2.9 23:48:38 10° NW 23:53:48 37° WSW 23:54:47 35° SW
